Location: Clairmont
(55.2667°N, 118.8000°W)
Time: 08:50:14
(UTC+00:00)

N. Korean satellite - Pass Details

Date: 28 October 2020
Orbit: 453 x 503 km, 97.2° (Epoch: 03 December)

Event Time Altitude Azimuth Distance (km) Brightness Sun altitude
Rises 01:28:01 0° 203° (SSW) 2,543 10.7 -9.3°
Reaches altitude 10° 01:30:32 10° 222° (SW) 1,658 10.1 -9.6°
Maximum altitude 01:33:08 19° 269° (W) 1,202 9.8 -10.0°
Drops below altitude 10° 01:35:43 10° 316° (NW) 1,646 9.8 -10.4°
Sets 01:38:13 0° 335° (NNW) 2,519 10.4 -10.7°
